Tracking 34794 objects as of 19-Jul-2026
HD Live streaming from Space Station
objects crossing your sky now

CZ-4 DEB

Track CZ-4 DEB now!
10-day predictions


NORAD ID: 37623
Int'l Code: 1990-081DK
Perigee: 817.5 km
Apogee: 850.0 km
Inclination: 98.7 °
Period: 101.4 minutes
Semi major axis: 7204 km
RCS: 0.0158 m2 (small)
Launch date: September 3, 1990
Source: People's Republic of China (PRC)
Launch site: Taiyaun Space Center, China (TSC)

Note: This is SATELLITE DEBRIS
Your satellite tracking list
Your tracking list is empty




NASA's NSSDC Master Catalog

Two Line Element Set (TLE):
1 37623U 90081DK  26199.78027389  .00000222  00000-0  12570-3 0  9994
2 37623  98.7386 186.7760 0022572  53.3070 307.0176 14.19623613671706
Source of the keplerian elements: AFSPC